Regional Weather Roundup
Issued by NWS Charleston, SC

Current Version | Previous Version | Graphics & Text | Print | Product List | Glossary On
Versions: 1 2 3 4 5 6 7 8 9 10 11 12 13 14 15 16 17 18 19 20 21 22 23 24 25 26 27 28 29 30 31 32 33 34 35 36 37 38 39 40 41 42 43 44 45 46 47 48 49 50
000 ASUS42 KCHS 292228 RWRCHS REGIONAL WEATHER ROUNDUP NATIONAL WEATHER SERVICE CHARLESTON SC 600 PM EDT FRI APR 29 2016 NOTE: "FAIR" INDICATES FEW OR NO CLOUDS BELOW 12,000 FEET WITH NO SIGNIFICANT WEATHER AND/OR OBSTRUCTIONS TO VISIBILITY. NOT ALL STATIONS ARE QUALITY CONTROLLED. USE DATA WITH CAUTION... ESPECIALLY DEWPOINT OBSERVATIONS. SCZ027-030-031-034>040-042>050-292300- ...SOUTHEAST SOUTH CAROLINA... CITY SKY/WX TMP DP RH WIND PRES REMARKS N CHARLESTON MOSUNNY 82 62 50 SE15 29.93S WATERFRONT PRK N/A 74 69 84 SE12 29.92S MOUNT PLEASANT FAIR 75 70 83 SE8 29.95R JOHNS ISLAND FAIR 77 70 78 SE9 29.94S PINOPOLIS N/A 90 66 45 VRB3 29.84F HX 92 MONCKS CORNER FAIR 79 57 47 SE9 29.93R SUMMERVILLE FAIR 86 63 45 SE6 29.93R BEAUFORT MCAS MOSUNNY 86 64 47 SE7 29.92S BEAUFORT ARPT FAIR 82 61 47 E8 29.93R HILTON HEAD IS SUNNY 79 64 61 SE9 29.94F WALTERBORO PTCLDY 86 61 42 SE9G16 29.93R ALLENDALE FAIR 90 55 31 CALM 29.90S ...SOUTHERN MIDLANDS AND PEE DEE... CITY SKY/WX TMP DP RH WIND PRES REMARKS GEORGETOWN FAIR 72 64 78 E9 29.96S KINGSTREE FAIR 86 55 35 CALM 29.92S ORANGEBURG SUNNY 88 55 32 S3 29.91S BARNWELL FAIR 91 55 29 CALM 29.91S AIKEN FAIR 88 50 27 CALM 29.95R MANNING NOT AVBL COLUMBIA MOSUNNY 89 49 25 W7 29.90F SUMTER MOSUNNY 86 56 36 S5 29.89F FLORENCE SUNNY 85 60 42 SE5 29.91F MYRTLE BEACH MOSUNNY 73 63 68 SE12 29.97S N MYRTLE BEACH MOSUNNY 71 65 81 SE10 29.95S $$ GAZ063-065-086>088-099>101-113>116-118-119-134>141-150-292300- ...SOUTHEAST GEORGIA... CITY SKY/WX TMP DP RH WIND PRES REMARKS SAVANNAH ARPT MOSUNNY 87 57 35 SE13 29.91S HUNTER AAF SUNNY 86 62 45 SE9 29.89S FORT STEWART SUNNY 89 59 36 E10 29.87F STATESBORO MOSUNNY 93 62 35 CALM 29.90S HX 93 SYLVANIA CLEAR 90 57 33 CALM 29.92R CLAXTON FAIR 90 60 37 CALM 29.90S ...CSRA...CENTRAL AND FAR SOUTHEAST GEORGIA... CITY SKY/WX TMP DP RH WIND PRES REMARKS THOMSON SUNNY 88 61 39 CALM 29.96F AUGUSTA-BUSH SUNNY 89 52 28 E5 29.90S AUGUSTA-DANIEL LGT RAIN 90 54 29 S6 29.92S SWAINSBORO FAIR 90 52 27 CALM 29.93R VIDALIA SUNNY 88 57 35 CALM 29.91S EASTMAN FAIR 89 55 31 CALM 29.94R HAZLEHURST FAIR 91 55 29 N5 29.90S ALMA SUNNY 89 58 34 SE3 29.90F WAYCROSS SUNNY 89 63 42 CALM 29.90S JESUP FAIR 91 63 38 E3 29.90S HX 92 BAXLEY FAIR 90 54 29 W5 29.90S BRUNSWICK SUNNY 90 59 35 SE8 29.92S SAINT SIMONS SUNNY 81 68 64 SE10 29.92S $$ SCZ027-028-034-036>038-045-046-048>050-GAZ119-141-292300- ...LAKE AND SUPPLEMENTAL COASTAL OBSERVATIONS... STATION/POSITION TIME TEMP WIND PRES WAVE SWELL AIR SEA DIR/SP/G HT/PER HT/PER/DIR (UTC) (F) (DEG/KT/KT) (MB) (FT/S) (FT/S/D) WINYAH BAY 2145 72 100/ 9 1013.0S LAKE MURRAY 2100 85 190/ 5/ 5 1012.5F ACE BASIN NERRS 2100 85 110/ 4 1013.0F FORT PULASKI 2200 81 73 1013.6F SAPELO ISLAND 2200 86 160/ 8 1013.0S $$ ANZ835-935-AMZ111-154-330-350-352-354-370-450-454-472-292300- ...C-MAN AND BUOY OBSERVATIONS... STATION/POSITION TIME TEMP WIND PRES WAVE SWELL AIR SEA DIR/SP/G HT/PER HT/PER/DIR (UTC) (F) (DEG/KT/KT) (MB) (FT/S) (FT/S/D) BUOY 41004 2150 72 72 80/ 10/ 12 1013.6F 2/ 8 2/ 8 BUOY 41008 NOT AVBL FOLLY BEACH CMAN 2200 73 120/ 11/ 12 1014.3S CAPERS NEARSHORE 2208 72 71 130/ 10/ 14 1013.7S FRIPP NEARSHORE 2208 76 74 120/ 8/ 10 1013.0S STATION/POSITION TIME TEMP WIND PRES WAVE SWELL AIR SEA DIR/SP/G HT/PER HT/PER/DIR (UTC) (F) (DEG/KT/KT) (MB) (FT/S) (FT/S/D) 5E ST. MARYS GA 2121 75 N/A 1/11 FRYING PAN BUOY 2200 69 70 50/ 10/ 12 1014.0F BUOY 41025 2150 63 74 20/ 17/ 21 1013.9S 3/ 8 2/ 70/ 8 CAPE LOOKOUT NC 2200 70 340/ 11/ 14 1013.9F BUOY 41002 2150 72 71 220/ 12/ 14 1013.2R 3/ 6 2/ 60/10 BUOY 41010 2120 77 77 220/ 6/ 8 1014.2F ST AUGUSTINE FL 2200 74 74 140/ 7/ 8 1014.3F $$

USA.gov is the U.S. government's official web portal to all federal, state and local government web resources and services.